Overview Statistics Trail Chart Weather Telemetry Raw packets
 

This is the latest recevied weather packets stored in our database for station/object K0QED. If no packets are shown the sender has not sent any weather packets the latest 10 day(s).

<< 32 33 34 35 36 37 38 >>
Time Temp. Humidity Pressure Rain* Wind** Luminosity Snow
1788404288 20° C 38% 1023.4 hPa 0 mm - 0 W/m² -
1788403983 19.44° C 38% 1023.4 hPa 0 mm - 0 W/m² -
1788403678 19.44° C 39% 1023.1 hPa 0 mm - 0 W/m² -
1788403377 20° C 38% 1023 hPa 0 mm - 0 W/m² -
1788403073 20° C 38% 1022.7 hPa 0 mm - 0 W/m² -
1788402769 20° C 37% 1022.6 hPa 0 mm - 0 W/m² -
1788402463 20° C 37% 1022.6 hPa 0 mm - 0 W/m² -
1788402162 20° C 37% 1022.7 hPa 0 mm - 0 W/m² -
1788401862 20.56° C 36% 1022.5 hPa 0 mm - 0 W/m² -
1788401557 20.56° C 36% 1022.5 hPa 0 mm - 0 W/m² -
1788401257 20.56° C 35% 1022.7 hPa 0 mm - 0 W/m² -
1788400952 20.56° C 35% 1022.2 hPa 0 mm - 0 W/m² -
1788400647 21.11° C 35% 1022.2 hPa 0 mm - 0 W/m² -
1788400343 21.67° C 34% 1022.2 hPa 0 mm - 0 W/m² -
1788400038 21.67° C 34% 1022.4 hPa 0 mm - 0 W/m² -
1788399737 22.22° C 35% 1022.1 hPa 0 mm - 0 W/m² -
1788399432 22.22° C 34% 1022.1 hPa 0 mm - 0 W/m² -
1788399131 22.22° C 33% 1022.1 hPa 0 mm - 0 W/m² -
1788398830 22.78° C 33% 1022.4 hPa 0 mm - 0 W/m² -
1788398529 22.78° C 32% 1022.1 hPa 0 mm - 1 W/m² -
1788398224 22.78° C 32% 1022 hPa 0 mm - 3 W/m² -
1788397918 23.33° C 32% 1022.4 hPa 0 mm - 4 W/m² -
1788397614 22.78° C 33% 1022.6 hPa 0 mm - 6 W/m² -
1788397313 23.33° C 32% 1022.5 hPa 0 mm - 8 W/m² -
1788397013 23.33° C 32% 1022.2 hPa 0 mm - 9 W/m² -

* Rain latest hour (hover to see other rain measurements)
** Current wind speed in m/s (hover to see current wind gust speed)